User: anonymous   Login
Location: Newark
(51.5033°N, 0.1199°W)
Time: 19:26:07
(UTC+00:00)
Language:

nSIGHT-1 - Orbit

View from above orbital plane
View from above orbital plane
View from above satellite
View from above satellite

Ground track
Ground track

The orbit data is extracted from the following two-line orbital elements,

1 42726U 98067MF  19291.77276908  .00032545  00000-0  20228-3 0  9995
2 42726  51.6336  42.1953 0005036 298.9325  61.1170 15.76655829137048
Epoch (UTC): 18 October 2019 18:32:47
Eccentricity: 0.0005036
inclination: 51.6336°
perigee height: 336 km
apogee height: 343 km
right ascension of ascending node: 42.1953°
argument of perigee: 298.9325°
revolutions per day: 15.76655829
mean anomaly at epoch: 61.1170°
orbit number at epoch: 13704

The dashed part of the orbit path shows where the satellite is in the earth's shadow,  

DLR